When you browse on this site, cookies collect data to enhance your experience and personalize the content and advertising you see.
Visit our Privacy Policy to learn more. By continuing to use the site, you agree to this use of cookies and data.
  • In United Kingdom
  • List of Countries
  • For 7 days
  • Water Temperature
  • Satellite Maps
  • Weather Map
  • Weather Widgets
  • user-avatar
    Login

    Hourly Weather Parakou

    Today, 15 December, Saturday

    Time Temperature Precipitation Wind Pressure Humidity
    00:00 +28°C° 0 mm 1 mps 729 mmHg 19%
    01:00 +27°C° 0 mm 1 mps 729 mmHg 19%
    02:00 +27°C° 0 mm 1 mps 729 mmHg 20%
    03:00 +26°C° 0 mm 1 mps 729 mmHg 20%
    04:00 +26°C° 0 mm 1 mps 729 mmHg 21%
    05:00 +25°C° 0 mm 1 mps 729 mmHg 22%
    06:00 +25°C° 0 mm 1 mps 730 mmHg 23%
    07:00 +27°C° 0 mm 1 mps 730 mmHg 20%
    08:00 +30°C° 0 mm 1 mps 731 mmHg 17%
    09:00 +33°C° 0 mm 1 mps 731 mmHg 14%
    10:00 +36°C° 0 mm 2 mps 731 mmHg 13%
    11:00 +37°C° 0 mm 2 mps 730 mmHg 12%
    12:00 +39°C° 0 mm 3 mps 730 mmHg 10%
    13:00 +40°C° 0 mm 3 mps 729 mmHg 10%
    14:00 +40°C° 0 mm 3 mps 729 mmHg 10%
    15:00 +42°C° 0 mm 3 mps 728 mmHg 9%
    16:00 +39°C° 0 mm 2 mps 728 mmHg 11%
    17:00 +37°C° 0 mm 2 mps 728 mmHg 12%
    18:00 +34°C° 0 mm 1 mps 728 mmHg 13%
    19:00 +33°C° 0 mm 1 mps 728 mmHg 14%
    20:00 +32°C° 0 mm 2 mps 729 mmHg 14%
    21:00 +31°C° 0 mm 2 mps 729 mmHg 15%
    22:00 +30°C° 0 mm 2 mps 729 mmHg 16%
    23:00 +29°C° 0 mm 2 mps 729 mmHg 16%

    Tomorrow, 16 December, Sunday

    Time Temperature Precipitation Wind Pressure Humidity
    00:00 +29°C° 0 mm 1 mps 729 mmHg 17%
    01:00 +28°C° 0 mm 1 mps 729 mmHg 17%
    02:00 +27°C° 0 mm 1 mps 728 mmHg 17%
    03:00 +27°C° 0 mm 1 mps 728 mmHg 18%
    04:00 +26°C° 0 mm 1 mps 728 mmHg 19%
    05:00 +26°C° 0 mm 1 mps 728 mmHg 21%
    06:00 +25°C° 0 mm 1 mps 729 mmHg 22%
    07:00 +27°C° 0 mm 1 mps 729 mmHg 19%
    08:00 +30°C° 0 mm 2 mps 730 mmHg 17%
    09:00 +32°C° 0 mm 2 mps 731 mmHg 14%
    10:00 +35°C° 0 mm 2 mps 730 mmHg 12%
    11:00 +37°C° 0 mm 3 mps 730 mmHg 10%
    12:00 +39°C° 0 mm 3 mps 729 mmHg 9%
    13:00 +40°C° 0 mm 3 mps 728 mmHg 9%
    14:00 +40°C° 0 mm 3 mps 728 mmHg 8%
    15:00 +42°C° 0 mm 3 mps 727 mmHg 8%
    16:00 +39°C° 0 mm 2 mps 727 mmHg 9%
    17:00 +37°C° 0 mm 2 mps 727 mmHg 11%
    18:00 +34°C° 0 mm 1 mps 727 mmHg 12%
    19:00 +33°C° 0 mm 1 mps 728 mmHg 12%
    20:00 +32°C° 0 mm 1 mps 728 mmHg 13%
    21:00 +31°C° 0 mm 2 mps 729 mmHg 13%
    22:00 +30°C° 0 mm 1 mps 729 mmHg 14%
    23:00 +29°C° 0 mm 1 mps 729 mmHg 14%

    Day after tomorrow, 17 December, Monday

    Time Temperature Precipitation Wind Pressure Humidity
    00:00 +29°C° 0 mm 1 mps 729 mmHg 14%
    01:00 +28°C° 0 mm 1 mps 728 mmHg 18%
    02:00 +27°C° 0 mm 1 mps 728 mmHg 22%
    03:00 +26°C° 0 mm 1 mps 728 mmHg 26%
    04:00 +26°C° 0 mm 1 mps 728 mmHg 33%
    05:00 +23°C° 0 mm 0 mps 728 mmHg 40%
    06:00 +23°C° 0 mm 0 mps 728 mmHg 48%
    07:00 +27°C° 0 mm 1 mps 729 mmHg 45%
    08:00 +29°C° 0 mm 1 mps 730 mmHg 41%
    09:00 +31°C° 0 mm 1 mps 730 mmHg 38%
    10:00 +33°C° 0 mm 1 mps 730 mmHg 32%
    11:00 +35°C° 0 mm 1 mps 729 mmHg 26%
    12:00 +37°C° 0 mm 1 mps 729 mmHg 20%
    13:00 +39°C° 0 mm 1 mps 728 mmHg 18%
    14:00 +39°C° 0 mm 1 mps 727 mmHg 17%
    15:00 +39°C° 0 mm 1 mps 727 mmHg 15%
    16:00 +37°C° 0 mm 1 mps 727 mmHg 17%
    17:00 +35°C° 0 mm 1 mps 727 mmHg 18%
    18:00 +33°C° 0 mm 1 mps 727 mmHg 20%
    19:00 +33°C° 0 mm 1 mps 728 mmHg 20%
    20:00 +32°C° 0 mm 1 mps 728 mmHg 20%
    21:00 +31°C° 0 mm 1 mps 729 mmHg 20%
    22:00 +30°C° 0 mm 1 mps 729 mmHg 19%
    23:00 +30°C° 0 mm 1 mps 728 mmHg 17%

    18 December, Tuesday

    Time Temperature Precipitation Wind Pressure Humidity
    00:00 +29°C° 0 mm 1 mps 728 mmHg 16%
    01:00 +28°C° 0 mm 1 mps 728 mmHg 18%
    02:00 +28°C° 0 mm 1 mps 728 mmHg 21%
    03:00 +27°C° 0 mm 1 mps 728 mmHg 23%
    04:00 +27°C° 0 mm 1 mps 728 mmHg 25%
    05:00 +26°C° 0 mm 1 mps 728 mmHg 27%
    06:00 +25°C° 0 mm 1 mps 728 mmHg 30%
    07:00 +28°C° 0 mm 1 mps 729 mmHg 29%
    08:00 +30°C° 0 mm 1 mps 730 mmHg 28%
    09:00 +32°C° 0 mm 1 mps 730 mmHg 27%
    10:00 +34°C° 0 mm 1 mps 730 mmHg 25%
    11:00 +36°C° 0 mm 1 mps 729 mmHg 22%
    12:00 +39°C° 0 mm 1 mps 729 mmHg 19%
    13:00 +39°C° 0 mm 1 mps 728 mmHg 17%
    14:00 +39°C° 0 mm 1 mps 727 mmHg 16%
    15:00 +40°C° 0 mm 1 mps 726 mmHg 15%
    16:00 +37°C° 0 mm 1 mps 727 mmHg 15%
    17:00 +36°C° 0 mm 1 mps 727 mmHg 15%
    18:00 +34°C° 0 mm 1 mps 727 mmHg 16%
    19:00 +33°C° 0 mm 1 mps 728 mmHg 15%
    20:00 +32°C° 0 mm 2 mps 728 mmHg 14%
    21:00 +31°C° 0 mm 2 mps 729 mmHg 14%
    22:00 +30°C° 0 mm 2 mps 728 mmHg 14%
    23:00 +29°C° 0 mm 2 mps 728 mmHg 14%

    19 December, Wednesday

    Time Temperature Precipitation Wind Pressure Humidity
    00:00 +29°C° 0 mm 2 mps 728 mmHg 13%
    01:00 +28°C° 0 mm 1 mps 728 mmHg 15%
    02:00 +27°C° 0 mm 1 mps 728 mmHg 18%
    03:00 +27°C° 0 mm 1 mps 727 mmHg 20%
    04:00 +26°C° 0 mm 1 mps 728 mmHg 22%
    05:00 +26°C° 0 mm 1 mps 728 mmHg 24%
    06:00 +25°C° 0 mm 1 mps 728 mmHg 26%
    07:00 +28°C° 0 mm 1 mps 729 mmHg 25%
    08:00 +30°C° 0 mm 1 mps 730 mmHg 23%
    09:00 +32°C° 0 mm 2 mps 730 mmHg 22%
    10:00 +35°C° 0 mm 2 mps 730 mmHg 19%
    11:00 +37°C° 0 mm 2 mps 729 mmHg 15%
    12:00 +38°C° 0 mm 2 mps 729 mmHg 12%
    13:00 +39°C° 0 mm 1 mps 728 mmHg 11%
    14:00 +39°C° 0 mm 1 mps 727 mmHg 11%
    15:00 +39°C° 0 mm 1 mps 726 mmHg 10%
    16:00 +37°C° 0 mm 1 mps 726 mmHg 11%
    17:00 +35°C° 0 mm 1 mps 727 mmHg 11%
    18:00 +33°C° 0 mm 1 mps 727 mmHg 12%
    19:00 +32°C° 0 mm 1 mps 727 mmHg 12%
    20:00 +31°C° 0 mm 2 mps 728 mmHg 13%
    21:00 +30°C° 0 mm 2 mps 728 mmHg 13%
    22:00 +30°C° 0 mm 2 mps 728 mmHg 14%
    23:00 +29°C° 0 mm 2 mps 728 mmHg 14%

    20 December, Thursday

    Time Temperature Precipitation Wind Pressure Humidity
    00:00 +28°C° 0 mm 2 mps 728 mmHg 15%
    01:00 +28°C° 0 mm 2 mps 727 mmHg 15%
    02:00 +27°C° 0 mm 2 mps 727 mmHg 15%
    03:00 +26°C° 0 mm 2 mps 727 mmHg 16%
    04:00 +26°C° 0 mm 1 mps 727 mmHg 17%
    05:00 +25°C° 0 mm 1 mps 728 mmHg 19%
    06:00 +25°C° 0 mm 1 mps 728 mmHg 20%
    07:00 +27°C° 0 mm 1 mps 728 mmHg 19%
    08:00 +29°C° 0 mm 2 mps 729 mmHg 18%
    09:00 +31°C° 0 mm 2 mps 729 mmHg 17%
    10:00 +34°C° 0 mm 2 mps 729 mmHg 15%
    11:00 +36°C° 0 mm 2 mps 729 mmHg 13%
    12:00 +38°C° 0 mm 2 mps 728 mmHg 11%
    13:00 +37°C° 0 mm 1 mps 727 mmHg 10%
    14:00 +39°C° 0 mm 1 mps 727 mmHg 10%
    15:00 +39°C° 0 mm 1 mps 726 mmHg 10%
    16:00 +37°C° 0 mm 1 mps 726 mmHg 11%
    17:00 +35°C° 0 mm 1 mps 726 mmHg 11%
    18:00 +33°C° 0 mm 1 mps 727 mmHg 12%
    19:00 +32°C° 0 mm 1 mps 727 mmHg 13%
    20:00 +31°C° 0 mm 1 mps 728 mmHg 13%
    21:00 +30°C° 0 mm 2 mps 728 mmHg 14%
    22:00 +29°C° 0 mm 2 mps 728 mmHg 14%
    23:00 +29°C° 0 mm 2 mps 728 mmHg 15%
    Show more